[[{"header":{"parameterUnit":"m.s-1","parameterCategory":1,"la1":30.2991,"la2":30.254,"lo1":-89.0895,"lo2":-89.0444,"dy":0.0017,"dx":0.0017,"nx":28,"ny":28,"refTime":"2024-06-25T21:00:00:Z","depth":0,"parameterNumber":2,"parameterNumberName":"U-component_of_WINDS"},"data":[0,0,0,0,0,0,0,0,0,0,0,0,0,0,0,0,0,0,0,0,0,0,0,0,0,0,0,0,0,0,0,0,0,0,0,0,0,0,0,0,0,0,0,0,0,0,0,0,0,0,0,0,0,0,0,0,0,0,0.6458,0.646,0,0.6603,0.6605,0.6606,0.665,0.6649,0.6649,0.6648,0.6806,0.681,0.6815,0,0,0,0,0,0,0,0,0,0,0,0,0,0.6227,0.6231,0.6458,0.646,0.6462,0.6603,0.6605,0.6607,0.665,0.6649,0.6648,0.6648,0.6804,0.681,0.6816,0,0,0,0,0,0,0,0,0,0,0,0,0,0.6346,0.6232,0.6458,0.65,0.6505,0.6602,0.6605,0.6607,0.665,0.6649,0.6648,0.6647,0.6802,0.6809,0.6817,0.6885,0,0,0.6839,0.6842,0,0,0,0,0,0,0,0,0.6339,0.6354,0.6492,0.6497,0.6503,0.6607,0.6581,0.6701,0.6651,0.6596,0.6648,0.6647,0.6741,0.6753,0.6783,0.6892,0.6899,0.684,0.6844,0.6847,0.6849,0,0,0,0,0,0,0,0.6331,0.6348,0.6516,0.6494,0.6501,0.6515,0.653,0.6604,0.6673,0.66,0.6604,0.662,0.6744,0.6776,0.6788,0.6901,0.6839,0.6846,0.6851,0.6853,0.7075,0.7076,0,0,0,0,0,0,0.6314,0.6341,0.6511,0.652,0.6416,0.652,0.6537,0.6575,0.6673,0.6686,0.6621,0.6621,0.6764,0.6779,0.6793,0.6881,0.6847,0.6854,0.6858,0.7073,0.7075,0.7077,0,0,0,0,0,0,0.6309,0.6329,0.6505,0.6431,0.6455,0.6525,0.6567,0.6579,0.6611,0.6688,0.6701,0.664,0.6764,0.6783,0.6861,0.6887,0.6857,0.6864,0.7071,0.7074,0.7076,0.7055,0,0,0,0,0,0,0.6302,0.6326,0.6351,0.6432,0.6459,0.6568,0.6569,0.6582,0.6622,0.6624,0.671,0.6723,0.6764,0.685,0.6869,0.6896,0.687,0.707,0.7072,0.7075,0.7054,0.7056,0.7058,0,0,0,0,0,0.6293,0.6341,0.6352,0.6373,0.6491,0.657,0.6586,0.663,0.6624,0.6651,0.67,0.672,0.688,0.6858,0.6879,0.6909,0.7068,0.7072,0.7075,0.7053,0.7055,0.7058,0,0,0,0,0,0,0.6266,0.6353,0.6366,0.644,0.6497,0.6577,0.6612,0.6631,0.6693,0.6693,0.6748,0.6767,0.6842,0.6883,0.6857,0.6981,0.6975,0.6983,0.6951,0.6954,0.6956,0.6946,0.6876,0,0,0,0,0,0.6267,0.6321,0.6396,0.6455,0.6482,0.6542,0.6578,0.6607,0.6669,0.6694,0.6749,0.6811,0.6876,0.6917,0.6981,0.7059,0.708,0.709,0.7093,0.7094,0.7101,0.7147,0.7153,0.7087,0.7087,0.7087,0,0,0.6273,0.6327,0.6359,0.645,0.6498,0.6555,0.6562,0.6623,0.6667,0.6704,0.6781,0.6824,0.6897,0.6975,0.7013,0.7013,0.7123,0.7098,0.7099,0.7105,0.7151,0.7157,0.7162,0.709,0.7089,0.7089,0,0,0.6313,0.6359,0.6413,0.6459,0.6529,0.6569,0.6581,0.6658,0.6687,0.6764,0.6794,0.6848,0.6958,0.7008,0.7049,0.7107,0.7128,0.7126,0.7139,0.7183,0.7188,0.7193,0.7215,0.7222,0.7132,0.7132,0.7132,0,0.6313,0.6398,0.6439,0.6498,0.6538,0.6571,0.6628,0.6672,0.6761,0.6789,0.6786,0.6924,0.6975,0.7067,0.708,0.7111,0.713,0.7118,0.7183,0.7189,0.7194,0.7216,0.7224,0.7131,0.7131,0.7132,0.7132,0,0.6394,0.6453,0.6488,0.6569,0.6614,0.6671,0.6724,0.6765,0.6789,0.6829,0.6909,0.6971,0.7048,0.7071,0.7097,0.7167,0.7165,0.7172,0.7168,0.7199,0.722,0.7229,0.7131,0.7131,0.7131,0.7131,0,0,0.6423,0.6524,0.6537,0.6574,0.6653,0.6701,0.6761,0.6833,0.6867,0.6927,0.698,0.7071,0.7077,0.7123,0.7155,0.7193,0.7237,0.7196,0.7199,0.7203,0.732,0.7315,0.7324,0.7251,0.7252,0.7254,0.7314,0,0.6474,0.6579,0.6618,0.6705,0.6761,0.6792,0.6845,0.6901,0.694,0.6995,0.7039,0.7103,0.7106,0.7134,0.7173,0.7223,0.7262,0.7219,0.7304,0.7306,0.7286,0.7335,0.7331,0.7385,0.7323,0.7324,0.7326,0,0.6549,0.6606,0.6697,0.6769,0.6794,0.684,0.691,0.6961,0.7025,0.7051,0.7101,0.713,0.7197,0.7186,0.728,0.725,0.7287,0.7317,0.732,0.7332,0.7319,0.735,0.7404,0.7412,0.7339,0.7338,0.7337,0,0.6562,0.6662,0.673,0.6761,0.6846,0.6878,0.6916,0.6979,0.7019,0.7081,0.7108,0.7177,0.7216,0.727,0.7318,0.7306,0.7409,0.7402,0.7435,0.7433,0.7457,0.7455,0.7518,0.7477,0.7477,0.7476,0.7476,0,0.6617,0.6672,0.6737,0.6779,0.6843,0.6888,0.6951,0.6991,0.7046,0.7099,0.7131,0.718,0.7239,0.7297,0.7335,0.7408,0.7425,0.745,0.746,0.7448,0.7445,0.7475,0.7473,0.7479,0.7478,0.7478,0.7477,0,0.6643,0.6689,0.6765,0.6838,0.6858,0.6902,0.6967,0.701,0.7049,0.7116,0.7134,0.7197,0.7267,0.7319,0.741,0.7435,0.7514,0.7523,0.7491,0.7496,0.7526,0.7524,0.7613,0.7628,0.7574,0.7574,0.7575,0,0.6676,0.6719,0.6796,0.6832,0.6868,0.6926,0.6967,0.7013,0.7055,0.7131,0.7166,0.7236,0.7296,0.7406,0.7462,0.7532,0.7544,0.7571,0.7556,0.7542,0.7547,0.7545,0.755,0.7574,0.7574,0.7574,0.7575,0,0.673,0.675,0.6806,0.687,0.6917,0.697,0.7025,0.7053,0.7109,0.7155,0.7224,0.727,0.7361,0.7432,0.7507,0.7549,0.7573,0.7578,0.759,0.758,0.756,0.7573,0.7499,0.7577,0.7577,0.7576,0.7576,0.7576,0.6763,0.6802,0.6862,0.6924,0.6968,0.7018,0.7062,0.7106,0.7164,0.7239,0.7264,0.7336,0.7401,0.7503,0.7546,0.7605,0.7606,0.7622,0.7627,0.763,0.763,0.7548,0.7619,0.7619,0.7619,0.7619,0.7619,0,0.6819,0.6859,0.6915,0.6988,0.7037,0.705,0.711,0.7151,0.7213,0.727,0.7326,0.7407,0.7475,0.7536,0.7608,0.7644,0.7656,0.7661,0.766,0.767,0.7625,0.7608,0.765,0.765,0.765,0.765,0.765,0.765,0.6855,0.6923,0.695,0.7041,0.7081,0.715,0.7183,0.723,0.7275,0.7363,0.7418,0.7456,0.7515,0.7591,0.7655,0.7672,0.7698,0.77,0.772,0.7677,0.7673,0.767,0.7654,0.7705,0.7705,0.776,0.7761,0.7761]},{"header":{"parameterUnit":"m.s-1","parameterCategory":1,"la1":30.2991,"la2":30.254,"lo1":-89.0895,"lo2":-89.0444,"dy":0.0017,"dx":0.0017,"nx":28,"ny":28,"refTime":"2024-06-25T21:00:00:Z","depth":0,"parameterNumber":3,"parameterNumberName":"V-component_of_WINDS"},"data":[0,0,0,0,0,0,0,0,0,0,0,0,0,0,0,0,0,0,0,0,0,0,0,0,0,0,0,0,0,0,0,0,0,0,0,0,0,0,0,0,0,0,0,0,0,0,0,0,0,0,0,0,0,0,0,0,0,0,2.999,2.999,0,2.9969,2.9968,2.9968,2.9978,2.9979,2.9979,2.998,2.9955,2.9954,2.9953,0,0,0,0,0,0,0,0,0,0,0,0,0,3.0036,3.0035,2.999,2.999,2.999,2.9969,2.9968,2.9968,2.9978,2.9979,2.9979,2.998,2.9956,2.9954,2.9953,0,0,0,0,0,0,0,0,0,0,0,0,0,3.0016,3.0035,2.999,2.9992,2.9992,2.9969,2.9968,2.9968,2.9978,2.9979,2.998,2.998,2.9956,2.9955,2.9953,2.9926,0,0,2.9947,2.9947,0,0,0,0,0,0,0,0,3.0017,3.0014,2.9992,2.9992,2.9992,2.9977,2.9976,2.9954,2.9978,2.9983,2.998,2.9981,2.9962,2.996,2.9954,2.9924,2.9923,2.9947,2.9946,2.9945,2.9945,0,0,0,0,0,0,0,3.0018,3.0015,2.9982,2.9992,2.9992,2.9993,2.9991,2.9972,2.9968,2.9983,2.9984,2.9981,2.9962,2.9955,2.9953,2.9923,2.9947,2.9946,2.9945,2.9944,2.9866,2.9865,0,0,0,0,0,0,3.002,3.0016,2.9982,2.9981,3.0007,2.9991,2.9989,2.9981,2.9968,2.9967,2.998,2.9982,2.9958,2.9955,2.9952,2.9917,2.9946,2.9944,2.9943,2.9867,2.9866,2.9865,0,0,0,0,0,0,3.0021,3.0017,2.9983,2.9999,2.9995,2.999,2.9981,2.998,2.9974,2.9966,2.9966,2.9975,2.9958,2.9955,2.9931,2.9916,2.9943,2.9941,2.9868,2.9867,2.9865,2.9847,0,0,0,0,0,0,3.0022,3.0017,3.0008,2.9998,2.9994,2.9964,2.998,2.9979,2.9971,2.9972,2.9961,2.996,2.9959,2.9934,2.993,2.9914,2.994,2.987,2.9868,2.9866,2.9849,2.9845,2.9842,0,0,0,0,0,3.0024,3.0004,3.0008,3.0003,2.9982,2.9963,2.996,2.996,2.997,2.9959,2.9954,2.996,2.9919,2.9931,2.9927,2.9911,2.987,2.9868,2.9866,2.9851,2.9846,2.9842,0,0,0,0,0,0,3.0012,3.0003,3.0007,2.9984,2.9974,2.9965,2.9952,2.9956,2.9943,2.9945,2.9945,2.9942,2.9917,2.9912,2.9926,2.9881,2.9896,2.9892,2.9886,2.9881,2.9878,2.9879,2.9939,0,0,0,0,0,3.0007,2.9993,2.9986,2.9966,2.9961,2.9957,2.9949,2.995,2.994,2.9935,2.9929,2.9918,2.9902,2.9892,2.9877,2.9849,2.9844,2.9835,2.9831,2.9828,2.9825,2.9806,2.9801,2.9857,2.9857,2.9857,0,0,2.9995,2.9989,2.998,2.9963,2.9956,2.994,2.9954,2.9937,2.9925,2.9933,2.991,2.9904,2.9892,2.9865,2.9852,2.9859,2.9808,2.9825,2.9823,2.9821,2.9803,2.9798,2.9793,2.9855,2.9856,2.9856,0,0,2.9967,2.9961,2.9943,2.9935,2.9924,2.9921,2.9916,2.9906,2.9903,2.988,2.9884,2.9869,2.9843,2.9832,2.9824,2.9788,2.9792,2.9783,2.9764,2.9745,2.9741,2.9737,2.9721,2.9716,2.978,2.978,2.978,0,2.9954,2.9931,2.9933,2.9915,2.9906,2.9912,2.9892,2.9884,2.9868,2.9861,2.9869,2.9834,2.9826,2.9795,2.9786,2.978,2.9773,2.9784,2.9742,2.9738,2.9734,2.9719,2.9713,2.9779,2.9779,2.9779,2.9779,0,2.9915,2.9899,2.9885,2.9869,2.9859,2.984,2.9837,2.9826,2.9826,2.9822,2.9797,2.9787,2.9769,2.9762,2.9764,2.973,2.9734,2.9742,2.9756,2.9727,2.9713,2.9707,2.9777,2.9778,2.9778,2.9778,0,0,2.9878,2.9862,2.9857,2.9848,2.9835,2.9822,2.9802,2.9785,2.9774,2.9762,2.9744,2.972,2.9726,2.9716,2.9716,2.97,2.9668,2.9709,2.9709,2.9699,2.9627,2.962,2.9613,2.9671,2.967,2.9669,2.9627,0,2.9847,2.9813,2.9812,2.978,2.9764,2.9769,2.9751,2.9739,2.9734,2.9718,2.9712,2.9694,2.9705,2.9699,2.9683,2.9675,2.9653,2.9679,2.9651,2.965,2.9652,2.9606,2.9599,2.956,2.9622,2.9621,2.962,0,2.9806,2.9792,2.9758,2.9745,2.9738,2.9722,2.9704,2.969,2.9676,2.9673,2.966,2.9662,2.9639,2.9654,2.9621,2.9638,2.9626,2.962,2.9619,2.9615,2.9632,2.9599,2.9548,2.9541,2.9612,2.9613,2.9613,0,2.9779,2.9753,2.9728,2.9721,2.9706,2.9694,2.9686,2.9674,2.9662,2.9646,2.9638,2.9619,2.9609,2.9593,2.9588,2.9601,2.9553,2.957,2.9548,2.9548,2.9537,2.9537,2.9482,2.9533,2.9533,2.9533,2.9533,0,2.9743,2.9721,2.9716,2.9701,2.9676,2.9674,2.9649,2.9642,2.963,2.9612,2.9615,2.9597,2.9593,2.9574,2.957,2.954,2.9536,2.9531,2.953,2.953,2.953,2.9521,2.9523,2.9532,2.9532,2.9532,2.9533,0,2.9709,2.9705,2.9678,2.9665,2.9661,2.9643,2.963,2.9614,2.9609,2.9585,2.958,2.9571,2.9548,2.9542,2.9515,2.9512,2.9476,2.9479,2.9481,2.948,2.9458,2.9459,2.9393,2.9383,2.9443,2.9443,2.9442,0,2.9685,2.9669,2.9653,2.9641,2.9633,2.9615,2.9603,2.96,2.9587,2.9568,2.9553,2.9531,2.9513,2.9476,2.9465,2.9444,2.9444,2.9422,2.9441,2.944,2.944,2.944,2.9437,2.9418,2.9417,2.9417,2.9417,0,2.9642,2.964,2.9624,2.9605,2.959,2.9576,2.9561,2.9551,2.9545,2.953,2.9507,2.9493,2.9464,2.9441,2.9418,2.9408,2.941,2.9411,2.9404,2.9403,2.9403,2.94,2.9469,2.9412,2.9413,2.9413,2.9413,2.9413,2.9611,2.9595,2.9581,2.9561,2.955,2.9536,2.9519,2.9511,2.9492,2.9469,2.9468,2.9442,2.9425,2.9395,2.9383,2.9361,2.9368,2.9359,2.9356,2.9353,2.935,2.9409,2.9357,2.9358,2.9358,2.9358,2.9358,0,2.9566,2.9557,2.9539,2.9518,2.9501,2.9506,2.9489,2.9475,2.9452,2.9437,2.9418,2.9389,2.9366,2.9353,2.9329,2.9313,2.9313,2.9306,2.9307,2.9303,2.9347,2.9354,2.9307,2.9307,2.9307,2.9307,2.9307,2.9307,2.9541,2.9513,2.9509,2.9475,2.9466,2.9441,2.943,2.9416,2.9403,2.9371,2.9352,2.9344,2.9328,2.9302,2.928,2.9276,2.9266,2.9258,2.9255,2.9296,2.9301,2.9306,2.9312,2.9257,2.9257,2.9212,2.9212,2.9212]}]]